User: anonymous   Login
Location: ????????
(55.6333°N, 37.7000°E)
Time: 03:46:24
(UTC+00:00)
Language:

Cosmos 220 Rocket - Orbit

View from above orbital plane
View from above orbital plane
View from above satellite
View from above satellite

Ground track
Ground track

The orbit data is extracted from the following two-line orbital elements,

1  3230U 68040B   25194.75728502  .00001892  00000-0  14969-3 0  9995
2  3230  74.0310  81.0948 0025678 321.9172  38.0200 15.01217633 75372
Epoch (UTC): 13 July 2025 18:10:29
Eccentricity: 0.0025678
inclination: 74.0310°
perigee height: 545 km
apogee height: 581 km
right ascension of ascending node: 81.0948°
argument of perigee: 321.9172°
revolutions per day: 15.01217633
mean anomaly at epoch: 38.0200°
orbit number at epoch: 7537

The dashed part of the orbit path shows where the satellite is in the earth's shadow,  

DLR